EW2575 Weather Reports


Display with metric or nautical units.
time (UTC)temp
F
wind
direction
speed
MPH
gust
MPH
rain 1hr
in
rain 24hr
in
rain mn
in
humidity
%
barometer
mb
20260906040041 69 119 1.0 6.0 0.00 0.00 0.00 82 1016.5
20260906035541 69 121 4.0 6.0 0.00 0.00 0.00 81 1016.4
20260906035039 69 261 0.0 3.0 0.00 0.00 0.00 80 1016.5
20260906034543 69 153 2.0 4.0 0.00 0.00 0.00 80 1016.6
20260906034036 69 68 2.0 4.0 0.00 0.00 0.00 79 1016.6
20260906033536 69 49 1.0 7.0 0.00 0.00 0.00 77 1016.7
20260906033036 70 107 4.0 7.0 0.00 0.00 0.00 77 1016.7
20260906032532 71 314 0.0 2.0 0.00 0.00 0.00 75 1016.7
20260906032031 71 314 0.0 2.0 0.00 0.00 0.00 73 1016.8
20260906031535 71 314 0.0 2.0 0.00 0.00 0.00 71 1016.9
20260906031028 72 314 0.0 5.0 0.00 0.00 0.00 65 1016.9
20260906030527 73 53 1.0 5.0 0.00 0.00 0.00 62 1016.9
20260906030033 74 320 1.0 4.0 0.00 0.00 0.00 61 1016.8
20260906025525 76 72 2.0 6.0 0.00 0.00 0.00 56 1016.9
20260906025025 78 320 2.0 8.0 0.00 0.00 0.00 31 1016.8
20260906024523 78 26 2.0 10.0 0.00 0.00 0.00 28 1016.8
20260906024023 78 77 4.0 8.0 0.00 0.00 0.00 30 1016.9
20260906023523 77 117 5.0 8.0 0.00 0.00 0.00 26 1016.9
20260906023024 74 84 4.0 6.0 0.00 0.00 0.00 36 1017.1
20260906022521 73 113 4.0 7.0 0.00 0.00 0.00 50 1017.1
20260906022022 75 360 1.0 4.0 0.00 0.00 0.00 52 1017.3
20260906021518 75 65 2.0 4.0 0.00 0.00 0.00 41 1017.3
20260906021017 76 73 2.0 5.0 0.00 0.00 0.00 34 1017.4
20260906020517 77 35 3.0 5.0 0.00 0.00 0.00 34 1017.5
20260906020017 78 32 2.0 8.0 0.00 0.00 0.00 29 1017.5
20260906015520 78 74 5.0 8.0 0.00 0.00 0.00 28 1017.5
20260906015015 79 42 1.0 5.0 0.00 0.00 0.00 34 1017.6
20260906014534 79 32 0.0 4.0 0.00 0.00 0.00 26 1017.6
20260906014014 80 32 2.0 5.0 0.00 0.00 0.00 28 1017.7
20260906013517 80 107 2.0 7.0 0.00 0.00 0.00 21 1017.7
20260906013021 79 126 3.0 7.0 0.00 0.00 0.00 24 1017.8
20260906012511 76 113 5.0 7.0 0.00 0.00 0.00 29 1017.9
20260906012011 76 202 2.0 6.0 0.00 0.00 0.00 39 1017.8
20260906011510 79 120 2.0 8.0 0.00 0.00 0.00 45 1017.9
20260906011010 81 119 5.0 8.0 0.00 0.00 0.00 22 1017.9
20260906010512 80 122 2.0 8.0 0.00 0.00 0.00 24 1017.9
20260906010030 80 150 4.0 8.0 0.00 0.00 0.00 24 1018.0
20260906005507 79 116 4.0 7.0 0.00 0.00 0.00 29 1018.0
20260906005011 82 31 1.0 10.0 0.00 0.00 0.00 33 1018.2
20260906004507 82 114 6.0 10.0 0.00 0.00 0.00 21 1018.2
20260906004006 82 142 2.0 13.0 0.00 0.00 0.00 22 1018.2
20260906003506 82 120 10.0 13.0 0.00 0.00 0.00 22 1018.1
20260906003005 81 131 8.0 11.0 0.00 0.00 0.00 23 1018.1
20260906002504 81 107 8.0 11.0 0.00 0.00 0.00 23 1018.1
20260906002006 81 121 7.0 11.0 0.00 0.00 0.00 24 1018.2
20260906001503 82 338 2.0 8.0 0.00 0.00 0.00 29 1018.3
20260906001002 82 111 7.0 8.0 0.00 0.00 0.00 22 1018.3
20260906000601 82 135 5.0 9.0 0.00 0.00 0.00 22 1018.3
20260906000100 81 108 8.0 9.0 0.00 0.00 0.00 23 1018.3
20260905235559 81 113 6.0 10.0 0.00 0.00 0.00 24 1018.4
20260905235058 81 101 7.0 9.0 0.00 0.00 0.00 24 1018.4
20260905234557 80 96 4.0 8.0 0.00 0.00 0.00 25 1018.4
20260905234054 79 105 1.0 3.0 0.00 0.00 0.00 28 1018.5
20260905233554 79 105 1.0 3.0 0.00 0.00 0.00 28 1018.5
20260905233054 79 105 2.0 3.0 0.00 0.00 0.00 32 1018.5
20260905232556 79 105 2.0 3.0 0.00 0.00 0.00 31 1018.6
20260905232052 79 105 2.0 6.0 0.00 0.00 0.00 31 1018.6
20260905231553 78 105 3.0 6.0 0.00 0.00 0.00 33 1018.6
20260905231051 78 74 4.0 6.0 0.00 0.00 0.00 34 1018.7
20260905230554 78 57 3.0 5.0 0.00 0.00 0.00 43 1018.7
20260905230052 80 14 2.0 5.0 0.00 0.00 0.00 34 1018.7
20260905225549 81 355 3.0 9.0 0.00 0.00 0.00 29 1018.7
20260905225048 81 110 7.0 9.0 0.00 0.00 0.00 24 1018.7
20260905224551 82 115 5.0 9.0 0.00 0.00 0.00 25 1018.7
20260905224048 81 101 4.0 6.0 0.00 0.00 0.00 26 1018.8
20260905223547 82 40 2.0 7.0 0.00 0.00 0.00 27 1018.9
20260905223048 82 105 2.0 7.0 0.00 0.00 0.00 25 1018.8
20260905222547 83 123 2.0 7.0 0.00 0.00 0.00 24 1018.8
20260905222046 82 90 4.0 10.0 0.00 0.00 0.00 24 1018.8
20260905221552 82 98 6.0 11.0 0.00 0.00 0.00 24 1018.8
20260905221048 82 117 6.0 11.0 0.00 0.00 0.00 25 1018.8
20260905220548 82 101 8.0 13.0 0.00 0.00 0.00 26 1018.7
20260905220047 82 114 8.0 11.0 0.00 0.00 0.00 26 1018.7
20260905215548 82 116 8.0 11.0 0.00 0.00 0.00 26 1018.7
20260905215045 82 120 8.0 11.0 0.00 0.00 0.00 27 1018.7
20260905214545 82 118 6.0 10.0 0.00 0.00 0.00 29 1018.7
20260905214046 82 123 7.0 12.0 0.00 0.00 0.00 28 1018.7
20260905213546 82 111 10.0 12.0 0.00 0.00 0.00 27 1018.8
20260905213052 83 117 7.0 9.0 0.00 0.00 0.00 27 1018.8
20260905212543 83 143 5.0 8.0 0.00 0.00 0.00 27 1018.7
20260905212042 82 146 6.0 9.0 0.00 0.00 0.00 28 1018.6
20260905211546 81 120 5.0 9.0 0.00 0.00 0.00 32 1018.6
20260905211042 82 119 6.0 10.0 0.00 0.00 0.00 32 1018.4
20260905210542 81 118 6.0 10.0 0.00 0.00 0.00 32 1018.4
20260905210041 82 124 5.0 8.0 0.00 0.00 0.00 32 1018.3
20260905205541 81 114 3.0 7.0 0.00 0.00 0.00 33 1018.2
20260905205041 81 92 3.0 6.0 0.00 0.00 0.00 35 1018.1
20260905204541 81 97 0.0 4.0 0.00 0.00 0.00 38 1018.0
20260905204040 82 257 0.0 2.0 0.00 0.00 0.00 46 1017.9
20260905203541 83 257 1.0 5.0 0.00 0.00 0.00 48 1017.9
20260905203052 83 150 2.0 6.0 0.00 0.00 0.00 33 1017.8
20260905202541 84 126 2.0 6.0 0.00 0.00 0.00 33 1017.7
20260905202040 83 115 5.0 7.0 0.00 0.00 0.00 32 1017.5
20260905201554 83 52 3.0 7.0 0.00 0.00 0.00 35 1017.5
20260905201039 83 42 3.0 7.0 0.00 0.00 0.00 37 1017.4
20260905200540 82 58 3.0 6.0 0.00 0.00 0.00 42 1017.4
20260905200039 82 115 2.0 6.0 0.00 0.00 0.00 44 1017.3
20260905195539 83 31 2.0 5.0 0.00 0.00 0.00 44 1017.2
20260905195039 83 78 3.0 8.0 0.00 0.00 0.00 45 1017.2
20260905194539 83 86 5.0 8.0 0.00 0.00 0.00 46 1017.2
20260905194038 82 86 3.0 7.0 0.00 0.00 0.00 48 1017.1
20260905193540 80 54 4.0 7.0 0.00 0.00 0.00 55 1017.1
20260905193039 77 34 0.0 3.0 0.00 0.00 0.00 74 1017.0
20260905192538 77 34 1.0 3.0 0.00 0.00 0.00 78 1017.1
20260905192038 78 314 1.0 3.0 0.00 0.00 0.00 78 1017.1
20260905191537 78 347 0.0 3.0 0.00 0.00 0.00 78 1017.0
20260905191037 78 347 0.0 3.0 0.00 0.00 0.00 78 1017.1
20260905190538 78 347 2.0 3.0 0.00 0.00 0.00 77 1017.1
20260905190140 78 347 1.0 3.0 0.00 0.00 0.00 77 1017.1
20260905185537 79 337 2.0 5.0 0.00 0.00 0.00 76 1017.1
20260905185037 79 288 1.0 7.0 0.00 0.00 0.00 75 1017.1
20260905184545 80 296 3.0 7.0 0.00 0.00 0.00 74 1017.0
20260905184036 79 261 0.0 3.0 0.00 0.00 0.00 71 1016.9
20260905183536 79 261 1.0 2.0 0.00 0.00 0.00 77 1016.9
20260905183042 79 261 1.0 3.0 0.00 0.00 0.00 77 1016.9
20260905182535 78 261 1.0 4.0 0.00 0.00 0.00 78 1016.9
20260905182038 78 261 2.0 6.0 0.00 0.00 0.00 77 1016.9
20260905181535 78 276 3.0 6.0 0.00 0.00 0.00 77 1016.9
20260905181035 78 271 2.0 6.0 0.00 0.00 0.00 77 1016.8
20260905180539 79 272 4.0 6.0 0.00 0.00 0.00 77 1016.8
20260905180034 79 293 1.0 4.0 0.00 0.00 0.00 78 1016.9
20260905175534 78 5 1.0 4.0 0.00 0.00 0.00 79 1016.9
20260905175034 78 5 1.0 5.0 0.00 0.00 0.00 80 1017.1
20260905174534 77 277 2.0 6.0 0.00 0.00 0.00 80 1017.2
20260905174033 77 291 3.0 9.0 0.00 0.00 0.00 80 1017.3
20260905173534 77 259 5.0 9.0 0.00 0.00 0.00 79 1017.3
20260905173033 77 265 4.0 8.0 0.00 0.00 0.00 79 1017.2
20260905172534 77 231 4.0 8.0 0.00 0.00 0.00 79 1017.2
20260905172033 77 257 4.0 7.0 0.00 0.00 0.00 79 1017.1
20260905171532 77 271 2.0 10.0 0.00 0.00 0.00 80 1017.1
20260905171032 77 269 7.0 10.0 0.00 0.00 0.00 78 1017.1
20260905170532 77 290 3.0 9.0 0.00 0.00 0.00 79 1017.1
20260905170033 77 230 4.0 9.0 0.00 0.00 0.00 78 1017.0
20260905165532 78 270 4.0 9.0 0.00 0.00 0.00 78 1016.9
20260905165032 78 273 3.0 8.0 0.00 0.00 0.00 77 1016.9
20260905164532 78 244 5.0 9.0 0.00 0.00 0.00 77 1016.9
20260905164032 79 240 5.0 11.0 0.00 0.00 0.00 76 1016.8
20260905163531 79 338 4.0 11.0 0.00 0.00 0.00 75 1016.8
20260905163031 80 272 5.0 9.0 0.00 0.00 0.00 73 1016.7
20260905162531 81 302 5.0 9.0 0.00 0.00 0.00 71 1016.5
20260905162030 82 234 2.0 7.0 0.00 0.00 0.00 71 1016.6
20260905161530 82 278 2.0 7.0 0.00 0.00 0.00 71 1016.5
20260905161033 81 283 3.0 7.0 0.00 0.00 0.00 72 1016.5
20260905160533 81 285 3.0 9.0 0.00 0.00 0.00 71 1016.5
20260905160029 82 238 3.0 9.0 0.00 0.00 0.00 69 1016.5
20260905155531 83 328 4.0 7.0 0.00 0.00 0.00 68 1016.5
20260905155028 82 302 3.0 9.0 0.00 0.00 0.00 69 1016.5
20260905154529 83 271 4.0 9.0 0.00 0.00 0.00 68 1016.5
20260905154028 83 284 2.0 8.0 0.00 0.00 0.00 68 1016.5
20260905153528 83 323 4.0 8.0 0.00 0.00 0.00 68 1016.6
20260905153027 83 311 3.0 9.0 0.00 0.00 0.00 67 1016.5
20260905152527 84 267 5.0 9.0 0.00 0.00 0.00 66 1016.6
20260905152026 85 309 3.0 6.0 0.00 0.00 0.00 65 1016.6
20260905151533 84 347 3.0 7.0 0.00 0.00 0.00 65 1016.7
20260905151024 83 292 4.0 8.0 0.00 0.00 0.00 67 1016.8
20260905150523 83 284 4.0 8.0 0.00 0.00 0.00 67 1016.8
20260905150024 83 308 5.0 8.0 0.00 0.00 0.00 67 1016.8
20260905145523 83 277 2.0 7.0 0.00 0.00 0.00 68 1016.8
20260905145021 83 292 2.0 7.0 0.00 0.00 0.00 69 1016.9
20260905144529 83 350 3.0 7.0 0.00 0.00 0.00 69 1017.0
20260905144019 82 265 5.0 7.0 0.00 0.00 0.00 70 1017.0
20260905143517 81 302 1.0 5.0 0.00 0.00 0.00 73 1017.0
20260905143017 80 286 3.0 8.0 0.00 0.00 0.00 75 1017.1
20260905142515 79 351 4.0 10.0 0.00 0.00 0.00 75 1017.3
20260905142016 79 254 4.0 10.0 0.00 0.00 0.00 75 1017.3
20260905141516 79 306 5.0 9.0 0.00 0.00 0.00 74 1017.4
20260905141015 79 338 3.0 9.0 0.00 0.00 0.00 75 1017.4
20260905140515 79 278 4.0 9.0 0.00 0.00 0.00 75 1017.4
20260905140015 78 309 1.0 6.0 0.00 0.00 0.00 77 1017.5
20260905135515 77 277 3.0 8.0 0.00 0.00 0.00 78 1017.6
20260905135014 76 288 3.0 8.0 0.00 0.00 0.00 79 1017.7
20260905134514 76 275 4.0 9.0 0.00 0.00 0.00 79 1017.8
20260905134013 76 277 5.0 10.0 0.00 0.00 0.00 78 1017.8
20260905133513 76 237 7.0 10.0 0.00 0.00 0.00 78 1017.8
20260905133012 76 271 6.0 10.0 0.00 0.00 0.00 77 1017.7
20260905132512 76 271 4.0 9.0 0.00 0.00 0.00 77 1017.7
20260905132012 76 248 4.0 8.0 0.00 0.00 0.00 76 1017.7
20260905131515 77 251 3.0 7.0 0.00 0.00 0.00 77 1017.7
20260905131013 77 336 3.0 7.0 0.00 0.00 0.00 76 1017.8
20260905130512 77 262 3.0 7.0 0.00 0.00 0.00 76 1017.7
20260905130011 77 276 3.0 7.0 0.00 0.00 0.00 77 1017.6
20260905125511 76 283 1.0 7.0 0.00 0.00 0.00 78 1017.8
20260905125011 76 293 4.0 9.0 0.00 0.00 0.00 78 1017.9
20260905124515 76 300 3.0 11.0 0.00 0.00 0.00 77 1018.1
20260905124009 77 271 5.0 10.0 0.00 0.00 0.00 76 1018.1
20260905123508 78 284 3.0 9.0 0.00 0.00 0.00 75 1017.9
20260905123008 78 246 4.0 10.0 0.00 0.00 0.00 75 1017.9
20260905122508 79 265 6.0 10.0 0.00 0.00 0.00 73 1017.9
20260905122006 80 295 6.0 10.0 0.00 0.00 0.00 72 1017.8
20260905121506 79 259 5.0 8.0 0.00 0.00 0.00 71 1017.7
20260905121008 79 36 2.0 6.0 0.00 0.00 0.00 72 1017.7
20260905120503 78 284 2.0 8.0 0.00 0.00 0.00 73 1017.8
20260905120003 78 275 4.0 8.0 0.00 0.00 0.00 73 1017.9
20260905115503 78 273 4.0 8.0 0.00 0.00 0.00 74 1017.9
20260905115003 78 355 3.0 7.0 0.00 0.00 0.00 74 1017.9
20260905114501 78 274 2.0 6.0 0.00 0.00 0.00 74 1018.0
20260905114059 78 288 2.0 8.0 0.00 0.00 0.00 74 1018.1
20260905113600 78 279 2.0 8.0 0.00 0.00 0.00 74 1018.2
20260905113102 78 269 3.0 8.0 0.00 0.00 0.00 73 1018.3
20260905112556 78 312 3.0 8.0 0.00 0.00 0.00 73 1018.3
20260905112055 78 259 3.0 8.0 0.00 0.00 0.00 72 1018.3
20260905111555 78 275 3.0 9.0 0.00 0.00 0.00 70 1018.4
20260905111053 79 270 4.0 9.0 0.00 0.00 0.00 68 1018.4
20260905110551 79 271 2.0 7.0 0.00 0.00 0.00 64 1018.3
20260905110051 78 338 3.0 6.0 0.00 0.00 0.00 64 1018.3
20260905105550 78 273 1.0 7.0 0.00 0.00 0.00 69 1018.4
20260905105049 77 287 2.0 9.0 0.00 0.00 0.00 68 1018.4
20260905104603 77 293 3.0 8.0 0.00 0.00 0.00 68 1018.4
20260905104047 77 307 4.0 8.0 0.00 0.00 0.00 69 1018.2
20260905103548 77 340 2.0 7.0 0.00 0.00 0.00 70 1018.3
20260905103046 76 273 2.0 7.0 0.00 0.00 0.00 70 1018.2
20260905102544 76 313 2.0 5.0 0.00 0.00 0.00 70 1018.3
20260905102043 75 44 1.0 7.0 0.00 0.00 0.00 72 1018.3
20260905101542 74 267 3.0 8.0 0.00 0.00 0.00 72 1018.4
20260905101040 75 254 3.0 7.0 0.00 0.00 0.00 71 1018.5
20260905100538 74 252 3.0 7.0 0.00 0.00 0.00 71 1018.5
20260905100041 74 281 3.0 7.0 0.00 0.00 0.00 70 1018.4
20260905095537 75 279 3.0 6.0 0.00 0.00 0.00 68 1018.4
20260905095037 75 279 1.0 6.0 0.00 0.00 0.00 68 1018.3
20260905094537 74 279 2.0 7.0 0.00 0.00 0.00 66 1018.3
20260905094036 75 250 3.0 7.0 0.00 0.00 0.00 63 1018.2
20260905093537 75 265 4.0 7.0 0.00 0.00 0.00 60 1018.1
20260905093036 75 360 1.0 3.0 0.00 0.00 0.00 61 1018.1
20260905092536 75 360 1.0 4.0 0.00 0.00 0.00 61 1018.0
20260905092034 75 277 1.0 4.0 0.00 0.00 0.00 60 1018.0
20260905091535 76 326 1.0 3.0 0.00 0.00 0.00 60 1018.1
20260905091030 76 326 1.0 4.0 0.00 0.00 0.00 56 1018.0
20260905090530 77 289 1.0 4.0 0.00 0.00 0.00 51 1018.1
20260905090028 78 295 0.0 4.0 0.00 0.00 0.00 49 1018.1
20260905085528 77 176 0.0 2.0 0.00 0.00 0.00 34 1018.0
20260905085026 76 176 0.0 2.0 0.00 0.00 0.00 45 1017.9
20260905084524 75 176 0.0 3.0 0.00 0.00 0.00 46 1018.0
20260905084022 74 134 1.0 3.0 0.00 0.00 0.00 47 1018.1
20260905083521 74 299 0.0 4.0 0.00 0.00 0.00 53 1018.2
20260905083019 74 209 2.0 4.0 0.00 0.00 0.00 45 1018.1
20260905082620 74 61 1.0 3.0 0.00 0.00 0.00 43 1018.0
20260905082019 74 113 1.0 4.0 0.00 0.00 0.00 47 1018.0
20260905081518 75 46 1.0 3.0 0.00 0.00 0.00 38 1018.1
20260905081016 76 188 1.0 6.0 0.00 0.00 0.00 36 1018.1
20260905080515 75 87 2.0 7.0 0.00 0.00 0.00 31 1017.9
20260905080014 75 101 4.0 7.0 0.00 0.00 0.00 33 1017.8
20260905075512 75 107 4.0 8.0 0.00 0.00 0.00 32 1017.8
20260905075011 74 112 6.0 8.0 0.00 0.00 0.00 32 1017.6
20260905074511 74 109 6.0 8.0 0.00 0.00 0.00 33 1017.5
20260905074007 73 101 5.0 8.0 0.00 0.00 0.00 33 1017.6
20260905073506 73 92 6.0 8.0 0.00 0.00 0.00 34 1017.6
20260905073013 72 82 1.0 10.0 0.00 0.00 0.00 34 1017.7
20260905072504 72 107 7.0 10.0 0.00 0.00 0.00 34 1017.6
20260905072006 72 115 8.0 11.0 0.00 0.00 0.00 34 1017.5
20260905071502 72 126 8.0 12.0 0.00 0.00 0.00 35 1017.4
20260905071003 71 101 10.0 12.0 0.00 0.00 0.00 37 1017.4
20260905070603 70 128 5.0 8.0 0.00 0.00 0.00 48 1017.4
20260905065600 71 84 4.0 6.0 0.00 0.00 0.00 44 1017.5
20260905065058 72 74 2.0 4.0 0.00 0.00 0.00 37 1017.6
20260905064557 73 86 0.0 4.0 0.00 0.00 0.00 35 1017.5
20260905064101 73 49 2.0 4.0 0.00 0.00 0.00 33 1017.4
20260905063600 73 96 0.0 1.0 0.00 0.00 0.00 33 1017.4
20260905063056 73 96 0.0 10.0 0.00 0.00 0.00 33 1017.2
20260905062656 73 96 5.0 11.0 0.00 0.00 0.00 32 1017.2
20260905062054 72 104 8.0 12.0 0.00 0.00 0.00 34 1017.1
20260905061556 72 110 8.0 12.0 0.00 0.00 0.00 34 1017.1
20260905061053 73 107 7.0 10.0 0.00 0.00 0.00 33 1017.1
20260905060552 72 106 8.0 10.0 0.00 0.00 0.00 34 1017.1
20260905060051 72 107 7.0 9.0 0.00 0.00 0.00 37 1017.0
20260905055550 71 111 7.0 9.0 0.00 0.00 0.00 43 1017.1
20260905055051 71 97 4.0 7.0 0.00 0.00 0.00 43 1017.2
20260905054550 71 105 3.0 7.0 0.00 0.00 0.00 40 1017.3
20260905054052 71 139 5.0 8.0 0.00 0.00 0.00 45 1017.3
20260905053549 71 213 1.0 8.0 0.00 0.00 0.00 38 1017.1
20260905053049 71 126 4.0 8.0 0.00 0.00 0.00 37 1016.8
20260905052550 71 107 5.0 8.0 0.00 0.00 0.00 41 1016.8
20260905052046 71 109 3.0 6.0 0.00 0.00 0.00 43 1016.9
20260905051546 71 118 0.0 3.0 0.00 0.00 0.00 50 1017.0
20260905051045 71 119 2.0 4.0 0.00 0.00 0.00 44 1017.1
20260905050546 70 172 3.0 6.0 0.00 0.00 0.00 45 1017.0
20260905050046 70 123 2.0 6.0 0.00 0.00 0.00 42 1017.0
20260905045545 71 123 3.0 7.0 0.00 0.00 0.00 45 1017.0
20260905045045 70 102 3.0 7.0 0.00 0.00 0.00 41 1017.1
20260905044548 71 114 5.0 7.0 0.00 0.00 0.00 43 1017.2
20260905044044 71 71 2.0 3.0 0.00 0.00 0.00 49 1017.2
20260905043545 71 71 1.0 5.0 0.00 0.00 0.00 48 1017.3
20260905043043 70 69 3.0 5.0 0.00 0.00 0.00 48 1017.3
20260905042543 70 87 4.0 6.0 0.00 0.00 0.00 44 1017.2
20260905042043 71 309 0.0 6.0 0.00 0.00 0.00 65 1017.2
20260905041550 71 309 2.0 7.0 0.00 0.00 0.00 44 1017.2
20260905041041 71 100 3.0 8.0 0.00 0.00 0.00 43 1017.0
20260905040540 70 109 6.0 8.0 0.00 0.00 0.00 46 1017.0